{"data":{"norad_id":55145,"epoch":"2026-05-25T02:00:51.325632Z","epoch_age_seconds":70952,"freshness":"FRESH","line1":"1 55145U 23004F   26145.08392738 -.00000001  00000+0 -36458-4 0  9999","line2":"2 55145  87.9161 340.0582 0001559  84.0427 276.0883 13.18685037166662","mean_motion":13.18685037,"eccentricity":0.0001559,"inclination_deg":87.9161,"raan_deg":340.0582,"arg_perigee_deg":84.0427,"mean_anomaly_deg":276.0883,"bstar":-3.6458e-5,"rev_number":16666,"period_min":109.1996920869,"perigee_km":1188.5669781924,"apogee_km":1190.9266443648,"semimajor_km":7567.8838112786,"source":"CELESTRAK","updated_at":"2026-05-25T13:38:22.640112Z"}}